This is the latest recevied weather packets stored in our database for station/object W6JCZ-13. If no packets are shown the sender has not sent any weather packets the latest 10 day(s).
| Time | Temp. | Humidity | Pressure | Rain* | Wind** | Luminosity | Snow |
|---|---|---|---|---|---|---|---|
| 1777494617 | 25.56° C | 44% | 1014.9 hPa | 0 mm | - | - | - |
| 1777494017 | 25.56° C | 47% | 1014.9 hPa | 0 mm | - | - | - |
| 1777493417 | 26.11° C | 44% | 1015 hPa | 0 mm | - | - | - |
| 1777492817 | 26.11° C | 42% | 1015.1 hPa | 0 mm | - | - | - |
| 1777492217 | 25° C | 51% | 1015.3 hPa | 0 mm | - | - | - |
| 1777491617 | 24.44° C | 46% | 1015.6 hPa | 0 mm | - | - | - |
| 1777491017 | 25.56° C | 45% | 1015.7 hPa | 0 mm | - | - | - |
| 1777490417 | 25° C | 49% | 1015.8 hPa | 0 mm | - | - | - |
| 1777489817 | 24.44° C | 49% | 1015.9 hPa | 0 mm | - | - | - |
| 1777489217 | 23.89° C | 50% | 1016.1 hPa | 0 mm | - | - | - |
| 1777488617 | 23.89° C | 48% | 1016.1 hPa | 0 mm | - | - | - |
| 1777488017 | 23.89° C | 51% | 1016.2 hPa | 0 mm | - | - | - |
| 1777487417 | 23.33° C | 52% | 1016.2 hPa | 0 mm | - | - | - |
| 1777486817 | 22.78° C | 54% | 1016.3 hPa | 0 mm | - | - | - |
| 1777486217 | 22.78° C | 53% | 1016.4 hPa | 0 mm | - | - | - |
| 1777485617 | 21.67° C | 55% | 1016.5 hPa | 0 mm | - | - | - |
| 1777485017 | 21.67° C | 55% | 1016.6 hPa | 0 mm | - | - | - |
| 1777484417 | 21.67° C | 59% | 1016.7 hPa | 0 mm | - | - | - |
| 1777483817 | 21.11° C | 59% | 1016.7 hPa | 0 mm | - | - | - |
| 1777483217 | 20.56° C | 61% | 1016.9 hPa | 0 mm | - | - | - |
| 1777482617 | 20° C | 65% | 1016.8 hPa | 0 mm | - | - | - |
| 1777482017 | 19.44° C | 66% | 1016.9 hPa | 0 mm | - | - | - |
| 1777481417 | 19.44° C | 67% | 1017 hPa | 0 mm | - | - | - |
| 1777480817 | 18.89° C | 68% | 1017.1 hPa | 0 mm | - | - | - |
| 1777480217 | 18.33° C | 69% | 1017.2 hPa | 0 mm | - | - | - |
* Rain latest hour (hover to see other rain measurements)
** Current wind speed in m/s (hover to see current wind gust speed)